DateTimeUTC,F1_A11,F1_S11,BsB_S11,BsG_S11,BsR_S11,BbsB_S11,BbsG_S11,BbsR_S11,BaB_A11,BaG_A11,BaR_A11,Tu_S11,T_S11,Uu_S11,U_S11,P_S11,T1_A11
2021-06-24T03:00:00Z,00000200,20000000,,,,,,,-000.09,0000.21,0000.25,17.9,24.9,02.9,01.9,0674.2,31.1
2021-06-24T03:01:00Z,00000200,20000000,,,,,,,0000.17,0000.03,0000.14,17.9,25.0,02.9,01.9,0674.2,31.1
2021-06-24T03:02:00Z,00000200,20000000,,,,,,,-000.36,0000.02,-000.46,18.0,25.0,02.9,01.9,0674.2,31.1
2021-06-24T03:03:00Z,00000200,60000000,,,,,,,0000.15,-000.03,0000.47,18.0,25.0,02.9,01.9,0674.2,31.1
2021-06-24T03:04:00Z,00000200,40000000,0001.65,0001.05,0000.58,0000.12,-000.02,0000.21,0000.25,0000.41,0000.15,18.2,24.9,03.1,02.1,0675.1,31.1
2021-06-24T03:05:00Z,00000200,00000000,0001.80,0001.08,0000.52,0000.48,0000.19,-000.12,0000.74,0000.50,-000.01,18.2,24.8,03.2,02.1,0675.2,31.1
2021-06-24T03:06:00Z,00000200,00000000,0001.98,0000.89,0000.58,0000.19,0000.11,0000.08,0000.05,0000.16,0000.44,18.2,24.8,03.3,02.2,0675.2,31.1
2021-06-24T03:07:00Z,00000200,00000000,0002.07,0001.03,0000.65,-000.20,0000.04,0000.10,0000.55,0000.44,0000.52,18.2,24.8,03.3,02.2,0675.1,31.1
2021-06-24T03:08:00Z,00000200,00000000,0001.77,0000.99,0000.41,0000.96,0000.09,0000.04,0000.42,0000.34,0000.11,18.1,24.7,03.4,02.3,0675.1,31.1
2021-06-24T03:09:00Z,00000200,00000000,0001.12,0001.37,0000.81,0000.03,0000.28,0000.43,0000.30,0000.23,0000.20,18.1,24.7,03.4,02.3,0675.1,31.0
2021-06-24T03:10:00Z,00000200,00000000,0002.26,0001.23,0000.77,0000.27,0000.19,0000.18,0000.54,0000.62,0000.16,18.1,24.7,03.5,02.3,0675.1,31.1
2021-06-24T03:11:00Z,00000200,00000000,0001.07,0001.30,0000.81,0000.16,0000.24,0000.44,0000.69,0000.08,0000.14,18.1,24.7,03.5,02.3,0675.1,31.1
2021-06-24T03:12:00Z,00000200,00000000,0002.21,0001.30,0000.57,0000.10,0000.18,0000.04,0000.01,0000.33,0000.43,18.1,24.7,03.6,02.4,0675.1,31.1
2021-06-24T03:13:00Z,00000200,00000000,0001.43,0001.28,0000.65,0000.59,0000.30,0000.44,0000.78,0000.54,0000.38,18.2,24.7,03.8,02.6,0675.1,31.1
2021-06-24T03:14:00Z,00000200,00000000,0001.96,0000.80,0000.46,0000.41,0000.18,0000.09,0000.12,0000.52,0000.18,18.3,24.7,03.8,02.6,0675.1,31.1
2021-06-24T03:15:00Z,00000200,00000000,0001.77,0001.16,0000.58,0000.08,0000.44,0000.06,0000.52,0000.09,0000.21,18.3,24.8,03.8,02.6,0675.0,31.1
2021-06-24T03:16:00Z,00000200,00000000,0001.71,0001.23,0000.67,-000.02,0000.35,-000.02,0000.34,0000.66,0000.31,18.3,24.8,03.9,02.6,0675.0,31.1
2021-06-24T03:17:00Z,00000200,00000000,0002.11,0000.81,0000.73,0000.17,0000.25,0000.34,0000.50,-000.20,0000.31,18.3,24.8,03.9,02.6,0675.0,31.1
2021-06-24T03:18:00Z,00000200,00000000,0001.63,0001.28,0000.71,0000.19,0000.21,0000.38,-000.01,0000.04,-000.24,18.3,24.8,04.0,02.7,0675.0,31.1
2021-06-24T03:19:00Z,00000200,00000000,0002.32,0000.97,0000.37,0000.49,0000.37,0000.07,0000.52,0000.84,0000.72,18.3,24.8,04.0,02.7,0675.0,31.1
2021-06-24T03:20:00Z,00000200,00000000,0002.02,0000.98,0000.54,0000.19,0000.13,0000.38,0000.41,-000.10,0000.18,18.2,24.7,04.1,02.8,0675.0,31.1
2021-06-24T03:21:00Z,00000200,00000000,0001.48,0001.04,0000.73,0000.33,0000.17,0000.42,0000.48,0000.44,0000.17,18.2,24.7,04.2,02.8,0675.0,31.1
2021-06-24T03:22:00Z,00000200,00000000,0002.26,0001.14,0000.89,0000.23,0000.08,0000.00,0000.26,0000.31,0000.23,18.2,24.7,04.2,02.8,0675.0,31.1
2021-06-24T03:23:00Z,00000200,00000000,0002.13,0001.26,0000.75,0000.32,0000.19,0000.38,0000.53,0000.59,0000.26,18.1,24.7,04.3,02.9,0675.0,31.1
2021-06-24T03:24:00Z,00000200,00000000,0001.91,0001.04,0000.63,0000.58,-000.06,0000.18,0000.33,0000.11,0000.13,18.1,24.7,04.3,02.9,0674.9,31.1
2021-06-24T03:25:00Z,00000200,00000000,0001.69,0001.29,0000.47,0000.35,0000.28,0000.40,0000.23,0000.52,0000.24,18.1,24.6,04.4,02.9,0674.9,31.1
2021-06-24T03:26:00Z,00000200,00000000,0001.89,0001.06,0000.62,0000.38,0000.30,0000.10,0000.47,0000.27,0000.77,18.1,24.6,04.5,03.0,0674.9,31.1
2021-06-24T03:27:00Z,00000200,00000000,0002.13,0001.04,0000.64,0000.32,0000.11,0000.22,0000.31,0000.69,-000.28,18.1,24.6,04.6,03.1,0674.9,31.1
2021-06-24T03:28:00Z,00000200,00000000,0001.73,0001.27,0000.77,0000.44,0000.10,0000.43,0001.00,0000.21,0000.59,18.2,24.6,04.8,03.2,0674.9,31.1
2021-06-24T03:29:00Z,00000200,00000000,0002.35,0000.92,0000.63,0000.13,0000.23,0000.17,-000.08,0000.19,0000.06,18.3,24.7,04.8,03.2,0674.9,31.1
2021-06-24T03:30:00Z,00000200,00000000,0001.92,0001.32,0000.88,0000.90,0000.16,-000.16,0000.42,0000.69,0000.58,18.3,24.7,04.7,03.2,0674.9,31.1
2021-06-24T03:31:00Z,00000200,00000000,0002.32,0001.16,0000.72,0000.67,0000.07,0000.28,0000.20,-000.37,0000.07,18.3,24.8,04.6,03.1,0674.9,31.1
2021-06-24T03:32:00Z,00000200,00000000,0001.24,0001.33,0000.24,0000.47,0000.32,0000.25,0000.28,0000.59,-000.06,18.4,24.8,04.7,03.2,0674.9,31.1
2021-06-24T03:33:00Z,00000200,00000000,0001.41,0001.25,0000.68,0000.18,0000.12,0000.52,0000.20,0000.16,0000.29,18.3,24.8,04.6,03.1,0674.8,31.1
2021-06-24T03:34:00Z,00000200,00000000,0001.70,0001.10,0000.31,0000.22,0000.25,-000.27,0000.36,0000.43,-000.04,18.3,24.8,04.6,03.1,0674.8,31.1
2021-06-24T03:35:00Z,00000200,00000000,0001.35,0000.93,0000.85,0000.43,0000.30,0000.41,0000.23,0000.05,0000.31,18.3,24.7,04.5,03.0,0674.8,31.1
2021-06-24T03:36:00Z,00000200,00000000,0002.15,0000.92,0000.75,0000.35,0000.23,0000.16,0000.35,0000.28,0000.16,18.3,24.7,04.5,03.1,0674.8,31.1
2021-06-24T03:37:00Z,00000200,00000000,0001.53,0001.01,0000.60,0000.02,0000.14,-000.03,0000.08,0000.24,0000.13,18.2,24.7,04.5,03.0,0674.8,31.1
2021-06-24T03:38:00Z,00000200,00000000,0001.92,0001.23,0000.43,0000.50,0000.23,0000.06,0000.50,0000.29,0000.37,18.2,24.7,04.5,03.0,0674.8,31.1
2021-06-24T03:39:00Z,00000200,00000000,0001.54,0001.18,0000.94,0000.06,0000.20,0000.02,0000.09,0000.16,0000.23,18.2,24.7,04.5,03.1,0674.8,31.1
2021-06-24T03:40:00Z,00000200,00000000,0001.78,0001.05,0000.49,0000.34,0000.62,-000.13,0000.31,0000.35,-000.01,18.1,24.6,04.5,03.1,0674.8,31.1
2021-06-24T03:41:00Z,00000200,00000000,0001.22,0001.15,0000.59,0000.55,0000.40,0000.17,0000.70,0000.04,0000.31,18.1,24.6,04.4,03.0,0674.8,31.1
2021-06-24T03:42:00Z,00000200,00000000,0001.22,0001.20,0000.47,0000.21,0000.25,-000.04,0000.25,0000.31,0000.32,18.2,24.6,04.5,03.0,0674.8,31.1
2021-06-24T03:43:00Z,00000200,00000000,0002.26,0001.42,0000.97,0000.68,0000.32,0000.28,0000.06,0000.40,-000.04,18.2,24.6,04.5,03.0,0674.8,31.1
2021-06-24T03:44:00Z,00000200,00000000,0001.08,0000.90,0000.62,0000.69,-000.01,0000.24,0000.27,0000.57,0000.56,18.2,24.7,04.4,02.9,0674.8,31.1
2021-06-24T03:45:00Z,00000200,00000000,0001.88,0001.06,0000.47,-000.01,0000.05,0000.22,0000.24,-000.07,-000.36,18.2,24.7,04.4,03.0,0674.8,31.1
2021-06-24T03:46:00Z,00000200,00000000,0001.81,0001.14,0000.75,0000.65,0000.26,0000.29,0000.42,0000.52,0000.60,18.2,24.7,04.5,03.0,0674.8,31.1
2021-06-24T03:47:00Z,00000200,00000000,0001.71,0001.11,0000.48,0000.62,0000.44,0000.28,0000.19,0000.29,0000.08,18.2,24.7,04.4,03.0,0674.8,31.1
2021-06-24T03:48:00Z,00000200,00000000,0001.73,0001.15,0000.56,0000.35,0000.18,0000.17,0000.18,0000.22,0000.20,18.2,24.7,04.4,03.0,0674.8,31.1
2021-06-24T03:49:00Z,00000200,00000000,0001.86,0001.06,0000.49,0000.71,0000.36,0000.16,0000.42,0000.06,-000.06,18.2,24.6,04.4,02.9,0674.8,31.1
2021-06-24T03:50:00Z,00000200,00000000,0001.68,0000.87,0000.54,0000.59,0000.18,0000.23,0000.15,0000.34,0000.42,18.1,24.6,04.5,03.0,0674.8,31.1
2021-06-24T03:51:00Z,00000200,00000000,0001.01,0000.89,0000.65,0000.68,0000.18,0000.13,0000.53,0000.39,0000.24,18.1,24.6,04.5,03.0,0674.8,31.1
2021-06-24T03:52:00Z,00000200,00000000,0001.54,0001.09,0000.46,0000.52,0000.30,-000.08,0000.17,0000.10,0000.29,18.1,24.6,04.5,03.0,0674.8,31.1
2021-06-24T03:53:00Z,00000200,00000000,0001.97,0001.16,0000.75,0000.49,0000.17,0000.54,0000.60,0000.27,-000.05,18.1,24.5,04.5,03.0,0674.8,31.1
2021-06-24T03:54:00Z,00000200,00000000,0001.38,0000.85,0000.71,0000.13,0000.12,0000.01,0000.28,0000.44,0000.42,18.0,24.5,04.5,03.0,0674.8,31.1
2021-06-24T03:55:00Z,00000200,00000000,0002.22,0001.10,0000.35,0000.24,-000.06,0000.17,0000.40,0000.57,0000.45,18.0,24.5,04.7,03.1,0674.8,31.0
2021-06-24T03:56:00Z,00000200,00000000,0001.76,0001.14,0000.66,0000.03,0000.26,0000.08,0000.48,-000.11,0000.13,18.0,24.5,04.6,03.1,0674.8,31.1
2021-06-24T03:57:00Z,00000200,40000000,,,,,,,-000.26,-000.25,-000.15,18.1,24.5,04.9,03.3,0674.9,31.1
2021-06-24T03:58:00Z,00000200,60000000,,,,,,,0000.35,0000.63,0000.11,17.8,24.7,04.3,02.8,0673.9,31.1
2021-06-24T03:59:00Z,00000200,20000000,,,,,,,-000.32,0000.17,-000.23,17.9,24.8,04.4,02.9,0673.8,31.1
